Regional Weather Roundup
Issued by NWS

Home | Current Version | Previous Version | Text Only | Print | Product List | Glossary Off
Versions: 1 2 3 4 5 6 7 8 9 10 11 12 13 14 15 16 17 18 19 20 21 22 23 24 25 26 27 28 29 30 31 32 33 34 35 36 37 38 39 40 41 42 43 44 45 46 47 48 49 50

000
ASUS43 KBIS 220810
RWRND

NORTH DAKOTA REGIONAL WEATHER ROUNDUP
NATIONAL WEATHER SERVICE BISMARCK ND
200 AM CST SUN JAN 22 2017

NOTE: "FAIR" INDICATES FEW OR NO CLOUDS BELOW 12,000 FEET WITH NO
SIGNIFICANT WEATHER AND/OR OBSTRUCTIONS TO VISIBILITY.


NDZ001>003-009>011-017-220900-
NORTHWEST NORTH DAKOTA

CITY           SKY/WX    TMP DP  RH WIND       PRES   REMARKS
WILLISTON      CLOUDY    30  28  92 NW10      29.65R
MINOT          CLOUDY    31  29  92 W7        29.59R FOG
MINOT AFB      CLOUDY    30  28  94 W12       29.58R FOG
$$

NDZ018>021-031>035-040>046-220900-
SOUTHWEST NORTH DAKOTA

CITY           SKY/WX    TMP DP  RH WIND       PRES   REMARKS
BISMARCK       CLOUDY    22  20  92 W3        29.66R
DICKINSON      FAIR      15  12  88 W9        29.61R WCI   3
GARRISON         N/A     29  27  92 W10       29.61R WCI  20
HETTINGER ARPT CLEAR     20  16  84 NW14      29.65R WCI   7
$$

NDZ004>008-012>016-024-026-027-054-220900-
NORTHEAST NORTH DAKOTA

CITY           SKY/WX    TMP DP  RH WIND       PRES   REMARKS
GRAND FORKS    FOG       34  33  96 CALM      29.61R VSB 3/4
GRND FRKS AFB  CLOUDY    33  33  99 CALM      29.61R FOG
DEVILS LAKE    CLOUDY    30  29  96 W13       29.60R WCI  20
$$

NDZ022-023-025-028>030-036>039-047>053-220900-
SOUTHEAST NORTH DAKOTA

CITY           SKY/WX    TMP DP  RH WIND       PRES   REMARKS
FARGO          FOG       36  35  96 CALM      29.61R VSB 1/4
JAMESTOWN      CLOUDY    31  30  96 W10       29.60R
$$





USA.gov is the U.S. government's official web portal to all federal, state and local government web resources and services.